Location: Bo?a Wola
(50.4192°N, 19.7966°E)
Time: 12:35:54
(UTC+00:00)

Cosmos 1934 Rocket - Pass Details

Date: 12 September 2024
Orbit: 938 x 997 km, 83.0° (Epoch: 08 October)

Event Time Altitude Azimuth Distance (km) Brightness Sun altitude
Rises 01:13:27 0° 354° (N) 3,685 7.6 -26.0°
Reaches altitude 10° 01:16:13 10° 3° (N) 2,743 6.9 -25.7°
Maximum altitude 01:21:57 36° 69° (ENE) 1,528 5.5 -25.1°
Drops below altitude 10° 01:27:42 10° 134° (SE) 2,756 6.4 -24.4°
Sets 01:30:28 0° 143° (SE) 3,704 7.0 -24.1°
